NORTHEAST SUFFOLK  -  Winter Weather Advisory Winter Weather Advisory        NORTHERN NASSAU  -  Winter Weather Advisory Winter Weather Advisory        NORTHWEST SUFFOLK  -  Winter Weather Advisory Winter Weather Advisory        SOUTHEAST SUFFOLK  -  Winter Weather Advisory Winter Weather Advisory        SOUTHERN NASSAU  -  Winter Weather Advisory Winter Weather Advisory        SOUTHWEST SUFFOLK  -  Winter Weather Advisory Winter Weather Advisory      

Active alerts

Northern Nassau
  Details for Northern Nassau Winter Weather Advisory
Southern Nassau
  Details for Southern Nassau Winter Weather Advisory
Northwest Suffolk
  Details for Northwest Suffolk Winter Weather Advisory
Southwest Suffolk
  Details for Southwest Suffolk Winter Weather Advisory
Northeast Suffolk
  Details for Northeast Suffolk Winter Weather Advisory
Southeast Suffolk
  Details for Southeast Suffolk Winter Weather Advisory


WXM80 ListenWXM80 Stop

You find our weather info also at:

UK Metoffice

WeatherCloud

Weather Underground

Northeastern Weather Network

AWEKAS

Citizen Weather Observer Program (CWOP)

HAMweather, WeatherForYou, PWS Weather


Weather Underground History page Text

Daily Summary for July 12, 2017 Units:  English    Metric   Both
« Previous Day
Next Day »
Daily Weekly Monthly Yearly Custom
  High: Low: Average:
Temperature: 92.7 °F 72.3 °F 81.1 °F
Dew Point: 79.0 °F 71.1 °F 73.9 °F
Humidity: 98 % 54 % 81 %
Wind Speed: 7.8 mph 0.0 mph 1.6 mph
Wind Gust: 15.0 mph - -
Wind:- - WSW
Pressure: 29.96 in 29.86 in -
Precipitation: 0.01 in    
Historical Graphs
 
 
Tabular Data for July 12, 2017
Time Temperature Dew Point Pressure Wind Wind Speed Wind Gust Humidity Rainfall Rate (Hourly)
00:04 73.6 °F 71.8 °F 29.91 in Calm     94 % 0.00 in
00:09 73.6 °F 71.8 °F 29.91 in Calm     94 % 0.00 in
00:14 73.5 °F 71.7 °F 29.91 in Calm     94 % 0.00 in
00:19 73.5 °F 71.7 °F 29.91 in Calm     94 % 0.00 in
00:24 73.5 °F 72.0 °F 29.91 in Calm     95 % 0.00 in
00:29 73.5 °F 72.0 °F 29.91 in Calm     95 % 0.00 in
00:34 73.5 °F 72.0 °F 29.91 in Calm     95 % 0.00 in
00:39 73.5 °F 72.0 °F 29.90 in Calm     95 % 0.00 in
00:44 73.4 °F 71.9 °F 29.90 in SW 0.1 mph 2.3 mph 95 % 0.00 in
00:49 73.4 °F 71.9 °F 29.90 in Calm   1.2 mph 95 % 0.00 in
00:54 73.4 °F 71.9 °F 29.90 in Calm     95 % 0.00 in
00:59 73.3 °F 71.8 °F 29.90 in Calm   1.2 mph 95 % 0.00 in
01:04 73.3 °F 71.8 °F 29.90 in Calm   1.0 mph 95 % 0.00 in
01:09 73.2 °F 71.7 °F 29.90 in Calm   1.2 mph 95 % 0.00 in
01:15 73.3 °F 71.8 °F 29.90 in Calm     95 % 0.00 in
01:20 73.3 °F 71.8 °F 29.91 in Calm   1.0 mph 95 % 0.00 in
01:25 73.3 °F 71.8 °F 29.91 in Calm   1.2 mph 95 % 0.00 in
01:30 73.3 °F 71.8 °F 29.91 in Calm   1.2 mph 95 % 0.00 in
01:35 73.3 °F 71.8 °F 29.91 in Calm     95 % 0.00 in
01:40 73.3 °F 71.8 °F 29.91 in Calm     95 % 0.00 in
01:45 73.3 °F 72.1 °F 29.91 in Calm     96 % 0.00 in
01:50 73.3 °F 71.8 °F 29.91 in Calm     95 % 0.00 in
01:55 73.3 °F 72.1 °F 29.91 in Calm     96 % 0.00 in
02:00 73.3 °F 71.8 °F 29.91 in Calm     95 % 0.00 in
02:02 73.3 °F 71.8 °F 29.91 in Calm     95 % 0.00 in
02:07 73.2 °F 72.0 °F 29.91 in Calm     96 % 0.00 in
02:12 73.2 °F 72.0 °F 29.91 in Calm     96 % 0.00 in
02:17 73.2 °F 72.0 °F 29.91 in Calm     96 % 0.00 in
02:22 73.2 °F 72.0 °F 29.91 in Calm     96 % 0.00 in
02:27 73.2 °F 72.0 °F 29.91 in Calm     96 % 0.00 in
02:32 73.2 °F 72.0 °F 29.91 in Calm   1.2 mph 96 % 0.00 in
02:37 73.3 °F 72.1 °F 29.91 in Calm     96 % 0.00 in
02:42 73.2 °F 72.0 °F 29.92 in Calm     96 % 0.00 in
02:47 73.3 °F 72.1 °F 29.92 in Calm     96 % 0.00 in
02:52 73.3 °F 72.1 °F 29.91 in Calm     96 % 0.00 in
02:57 73.3 °F 72.1 °F 29.92 in Calm     96 % 0.00 in
03:02 73.3 °F 72.1 °F 29.92 in Calm     96 % 0.00 in
03:07 73.2 °F 72.0 °F 29.91 in Calm     96 % 0.00 in
03:12 73.3 °F 72.1 °F 29.91 in Calm     96 % 0.00 in
03:17 73.2 °F 72.0 °F 29.91 in Calm     96 % 0.00 in
03:22 73.2 °F 72.0 °F 29.91 in Calm     96 % 0.00 in
03:28 73.2 °F 72.0 °F 29.91 in Calm     96 % 0.00 in
03:33 73.1 °F 71.9 °F 29.91 in Calm     96 % 0.00 in
03:38 73.0 °F 71.8 °F 29.91 in Calm     96 % 0.00 in
03:43 73.0 °F 71.8 °F 29.91 in Calm     96 % 0.00 in
03:48 72.9 °F 71.7 °F 29.91 in Calm     96 % 0.00 in
03:53 72.8 °F 71.3 °F 29.91 in Calm     95 % 0.00 in
03:58 72.7 °F 71.2 °F 29.91 in Calm     95 % 0.00 in
04:03 72.7 °F 71.2 °F 29.91 in Calm     95 % 0.00 in
04:08 72.6 °F 71.1 °F 29.92 in Calm     95 % 0.00 in
04:13 72.6 °F 71.1 °F 29.91 in Calm     95 % 0.00 in
04:18 72.6 °F 71.4 °F 29.92 in Calm     96 % 0.00 in
04:23 72.5 °F 71.3 °F 29.92 in Calm     96 % 0.00 in
04:28 72.5 °F 71.3 °F 29.91 in Calm     96 % 0.00 in
04:33 72.4 °F 71.2 °F 29.91 in Calm     96 % 0.00 in
04:38 72.4 °F 71.2 °F 29.91 in Calm     96 % 0.00 in
04:43 72.3 °F 71.1 °F 29.91 in Calm     96 % 0.00 in
04:48 72.4 °F 71.2 °F 29.91 in Calm     96 % 0.00 in
04:53 72.4 °F 71.2 °F 29.91 in Calm     96 % 0.00 in
04:58 72.4 °F 71.2 °F 29.91 in Calm     96 % 0.00 in
04:59 72.4 °F 71.2 °F 29.91 in Calm     96 % 0.00 in
05:04 72.4 °F 71.2 °F 29.91 in Calm     96 % 0.00 in
05:09 72.4 °F 71.2 °F 29.91 in Calm     96 % 0.00 in
05:14 72.4 °F 71.2 °F 29.91 in Calm     96 % 0.00 in
05:19 72.4 °F 71.2 °F 29.91 in SW 0.5 mph 2.3 mph 96 % 0.00 in
05:24 72.4 °F 71.2 °F 29.91 in Calm     96 % 0.00 in
05:29 72.5 °F 71.3 °F 29.91 in Calm     96 % 0.00 in
05:34 72.6 °F 71.4 °F 29.90 in Calm   1.2 mph 96 % 0.00 in
05:39 72.9 °F 72.0 °F 29.90 in Calm     97 % 0.00 in
05:44 73.1 °F 72.2 °F 29.90 in Calm     97 % 0.00 in
05:49 73.2 °F 72.3 °F 29.89 in Calm     97 % 0.00 in
05:54 73.3 °F 72.4 °F 29.89 in Calm     97 % 0.00 in
05:59 73.3 °F 72.4 °F 29.89 in SW 0.2 mph 1.2 mph 97 % 0.00 in
06:04 73.3 °F 72.4 °F 29.89 in Calm     97 % 0.00 in
06:09 73.4 °F 72.5 °F 29.88 in Calm   1.2 mph 97 % 0.00 in
06:15 73.4 °F 72.5 °F 29.89 in Calm     97 % 0.00 in
06:20 73.5 °F 72.6 °F 29.89 in Calm   1.2 mph 97 % 0.00 in
06:25 73.5 °F 72.6 °F 29.90 in SW 0.2 mph 1.2 mph 97 % 0.00 in
06:30 73.5 °F 72.6 °F 29.90 in WSW 2.2 mph 3.5 mph 97 % 0.00 in
06:35 73.6 °F 72.7 °F 29.90 in West 1.8 mph 3.5 mph 97 % 0.00 in
06:40 73.6 °F 72.7 °F 29.90 in SW 2.3 mph 5.8 mph 97 % 0.00 in
06:45 73.7 °F 72.8 °F 29.90 in WSW 1.6 mph 5.8 mph 97 % 0.00 in
06:50 73.7 °F 72.8 °F 29.90 in WSW 2.2 mph 3.0 mph 97 % 0.00 in
06:53 73.7 °F 72.8 °F 29.90 in WSW 1.4 mph 3.5 mph 97 % 0.00 in
06:58 73.8 °F 72.9 °F 29.91 in SW 1.5 mph 3.5 mph 97 % 0.00 in
07:03 74.0 °F 73.1 °F 29.91 in South 0.9 mph 3.5 mph 97 % 0.00 in
07:08 74.2 °F 73.3 °F 29.91 in WSW 3.1 mph 5.0 mph 97 % 0.00 in
07:13 74.5 °F 73.9 °F 29.91 in SSW 2.4 mph 5.8 mph 98 % 0.00 in
07:18 74.7 °F 73.8 °F 29.91 in WSW 2.9 mph 4.6 mph 97 % 0.00 in
07:23 74.8 °F 73.9 °F 29.92 in West 3.0 mph 5.8 mph 97 % 0.00 in
07:28 74.8 °F 73.9 °F 29.92 in WSW 1.2 mph 3.5 mph 97 % 0.00 in
07:33 74.8 °F 73.9 °F 29.92 in West 2.1 mph 3.5 mph 97 % 0.00 in
07:38 74.8 °F 73.9 °F 29.93 in West 0.5 mph 2.3 mph 97 % 0.00 in
07:43 74.8 °F 73.9 °F 29.93 in West 0.2 mph 1.2 mph 97 % 0.00 in
07:48 74.9 °F 74.0 °F 29.93 in West 0.8 mph 3.5 mph 97 % 0.00 in
07:53 74.9 °F 74.0 °F 29.93 in WNW 0.2 mph 3.5 mph 97 % 0.00 in
07:56 74.9 °F 74.0 °F 29.93 in WNW 0.2 mph 1.2 mph 97 % 0.00 in
08:01 74.9 °F 74.0 °F 29.93 in WNW 0.6 mph 3.5 mph 97 % 0.00 in
08:06 74.9 °F 74.0 °F 29.92 in WNW 0.1 mph 1.2 mph 97 % 0.00 in
08:11 74.9 °F 74.0 °F 29.93 in Calm   1.2 mph 97 % 0.00 in
08:16 74.9 °F 74.0 °F 29.93 in WNW 0.2 mph 2.3 mph 97 % 0.00 in
08:21 74.9 °F 74.0 °F 29.93 in Calm   1.2 mph 97 % 0.00 in
08:26 75.0 °F 74.1 °F 29.93 in WNW 0.7 mph 2.3 mph 97 % 0.00 in
08:31 75.0 °F 74.1 °F 29.92 in WNW 0.4 mph 1.2 mph 97 % 0.00 in
08:36 75.1 °F 74.2 °F 29.92 in NW 0.2 mph 1.2 mph 97 % 0.00 in
08:41 75.3 °F 74.4 °F 29.92 in NW 0.3 mph 2.0 mph 97 % 0.00 in
08:46 75.5 °F 74.6 °F 29.92 in SW 1.9 mph 4.6 mph 97 % 0.00 in
08:51 75.6 °F 74.7 °F 29.92 in SW 1.1 mph 3.5 mph 97 % 0.00 in
08:57 75.7 °F 74.8 °F 29.93 in SW 0.3 mph 2.3 mph 97 % 0.00 in
09:02 75.8 °F 74.9 °F 29.92 in WSW 0.5 mph 3.5 mph 97 % 0.00 in
09:07 75.9 °F 75.0 °F 29.92 in SW 3.0 mph 4.0 mph 97 % 0.00 in
09:12 76.0 °F 75.1 °F 29.93 in SW 3.1 mph 10.0 mph 97 % 0.00 in
09:17 76.1 °F 75.2 °F 29.93 in WSW 3.9 mph 8.1 mph 97 % 0.00 in
09:22 76.2 °F 75.3 °F 29.93 in WSW 3.2 mph 6.9 mph 97 % 0.00 in
09:27 76.3 °F 75.4 °F 29.93 in WSW 3.3 mph 5.8 mph 97 % 0.00 in
09:32 76.6 °F 75.7 °F 29.92 in WSW 1.5 mph 4.6 mph 97 % 0.00 in
09:37 76.8 °F 75.6 °F 29.93 in SW 3.5 mph 5.8 mph 96 % 0.00 in
09:42 77.1 °F 75.9 °F 29.93 in SSW 2.4 mph 6.9 mph 96 % 0.00 in
09:43 77.1 °F 75.9 °F 29.93 in WSW 2.2 mph 3.5 mph 96 % 0.00 in
09:48 77.6 °F 76.4 °F 29.93 in SW 7.8 mph 8.1 mph 96 % 0.00 in
09:53 78.0 °F 75.8 °F 29.93 in SW 1.7 mph 4.6 mph 93 % 0.00 in
09:58 78.5 °F 76.0 °F 29.92 in SW 3.1 mph 9.2 mph 92 % 0.00 in
10:03 79.2 °F 76.3 °F 29.93 in WSW 1.2 mph 5.8 mph 91 % 0.00 in
10:08 79.8 °F 76.9 °F 29.93 in WNW 1.8 mph 10.4 mph 91 % 0.00 in
10:13 80.3 °F 76.4 °F 29.92 in SSW 5.7 mph 11.5 mph 88 % 0.00 in
10:18 80.8 °F 76.9 °F 29.92 in WSW 3.4 mph 3.5 mph 88 % 0.00 in
10:23 81.5 °F 77.3 °F 29.92 in WNW 0.4 mph 3.5 mph 87 % 0.00 in
10:28 82.2 °F 77.6 °F 29.92 in WNW 2.0 mph 5.8 mph 86 % 0.00 in
10:34 82.8 °F 76.7 °F 29.92 in SW 4.9 mph 11.5 mph 82 % 0.00 in
10:39 83.6 °F 78.2 °F 29.93 in WNW 1.8 mph 3.5 mph 84 % 0.00 in
10:44 84.2 °F 78.5 °F 29.93 in NNE 1.2 mph 3.5 mph 83 % 0.00 in
10:49 84.7 °F 77.1 °F 29.94 in West 1.9 mph 5.0 mph 78 % 0.00 in
10:54 85.5 °F 79.0 °F 29.93 in SW 2.2 mph 4.0 mph 81 % 0.00 in
10:59 86.1 °F 78.4 °F 29.94 in WSW 3.0 mph 6.0 mph 78 % 0.00 in
11:05 86.6 °F 78.1 °F 29.93 in SW 2.8 mph 3.5 mph 76 % 0.00 in
11:10 87.1 °F 77.8 °F 29.93 in NW 5.0 mph 8.1 mph 74 % 0.00 in
11:15 87.4 °F 76.8 °F 29.93 in SW 2.1 mph 4.6 mph 71 % 0.00 in
11:20 87.7 °F 76.7 °F 29.93 in SW 2.5 mph 7.0 mph 70 % 0.00 in
11:25 88.0 °F 76.1 °F 29.93 in WSW 5.1 mph 8.1 mph 68 % 0.00 in
11:30 88.3 °F 76.8 °F 29.93 in WNW 1.7 mph 4.6 mph 69 % 0.00 in
11:35 88.6 °F 78.0 °F 29.93 in SSW 1.0 mph 3.5 mph 71 % 0.00 in
11:40 89.0 °F 78.8 °F 29.93 in NW 0.6 mph 6.0 mph 72 % 0.00 in
11:45 89.4 °F 77.9 °F 29.93 in South 3.4 mph 6.0 mph 69 % 0.00 in
11:50 89.8 °F 77.8 °F 29.93 in WNW 2.0 mph 8.1 mph 68 % 0.00 in
11:55 90.1 °F 77.7 °F 29.93 in WSW 3.9 mph 6.9 mph 67 % 0.00 in
12:00 90.4 °F 78.4 °F 29.93 in West 2.6 mph 3.5 mph 68 % 0.00 in
12:05 90.7 °F 77.8 °F 29.93 in WSW 2.9 mph 5.8 mph 66 % 0.00 in
12:10 90.8 °F 76.5 °F 29.93 in SW 5.6 mph 11.5 mph 63 % 0.00 in
12:15 90.8 °F 76.5 °F 29.92 in West 3.0 mph 7.0 mph 63 % 0.00 in
12:21 90.9 °F 77.0 °F 29.92 in WNW 2.0 mph 7.0 mph 64 % 0.00 in
12:25 91.0 °F 77.1 °F 29.92 in WNW 2.0 mph 5.0 mph 64 % 0.00 in
12:31 91.2 °F 77.3 °F 29.91 in WSW 2.0 mph 5.0 mph 64 % 0.00 in
12:36 91.2 °F 75.9 °F 29.91 in SW 3.0 mph 9.0 mph 61 % 0.00 in
12:41 91.3 °F 76.9 °F 29.91 in SW 2.0 mph 6.0 mph 63 % 0.00 in
12:46 91.5 °F 77.6 °F 29.91 in SW 2.0 mph 7.0 mph 64 % 0.00 in
12:50 91.6 °F 77.7 °F 29.91 in SW 1.0 mph 7.0 mph 64 % 0.00 in
12:56 91.7 °F 76.8 °F 29.91 in WSW 5.0 mph 8.0 mph 62 % 0.00 in
13:01 91.7 °F 77.3 °F 29.91 in WSW 1.9 mph 4.6 mph 63 % 0.00 in
13:06 91.9 °F 78.0 °F 29.91 in West 1.2 mph 5.8 mph 64 % 0.00 in
13:11 91.9 °F 76.0 °F 29.91 in SW 5.8 mph 10.4 mph 60 % 0.00 in
13:16 92.0 °F 77.1 °F 29.91 in NW 0.9 mph 3.5 mph 62 % 0.00 in
13:21 92.2 °F 77.8 °F 29.90 in SW 2.6 mph 6.9 mph 63 % 0.00 in
13:26 92.3 °F 76.9 °F 29.90 in NW 4.3 mph 8.1 mph 61 % 0.00 in
13:31 92.5 °F 78.1 °F 29.90 in West 3.6 mph 5.8 mph 63 % 0.00 in
13:36 92.6 °F 76.7 °F 29.90 in WNW 4.6 mph 8.1 mph 60 % 0.00 in
13:41 92.6 °F 76.2 °F 29.90 in West 4.4 mph 6.9 mph 59 % 0.00 in
13:46 92.7 °F 76.3 °F 29.89 in WSW 5.3 mph 9.2 mph 59 % 0.00 in
13:51 92.6 °F 75.7 °F 29.89 in SW 4.8 mph 7.0 mph 58 % 0.00 in
13:56 92.6 °F 75.7 °F 29.89 in SW 2.0 mph 4.6 mph 58 % 0.00 in
14:01 92.5 °F 75.0 °F 29.90 in WNW 4.4 mph 10.4 mph 57 % 0.00 in
14:06 92.4 °F 76.0 °F 29.89 in West 5.8 mph 9.2 mph 59 % 0.00 in
14:11 92.0 °F 75.1 °F 29.90 in SW 4.7 mph 6.9 mph 58 % 0.00 in
14:16 91.7 °F 75.3 °F 29.90 in West 4.0 mph 5.8 mph 59 % 0.00 in
14:21 91.4 °F 75.6 °F 29.89 in West 2.9 mph 5.8 mph 60 % 0.00 in
14:26 91.5 °F 75.7 °F 29.89 in SSW 1.6 mph 4.6 mph 60 % 0.00 in
14:31 91.4 °F 75.6 °F 29.90 in SW 3.1 mph 5.8 mph 60 % 0.00 in
14:36 91.3 °F 75.5 °F 29.90 in WNW 3.5 mph 5.8 mph 60 % 0.00 in
14:41 91.3 °F 77.9 °F 29.89 in West 4.3 mph 10.4 mph 65 % 0.00 in
14:46 91.4 °F 76.5 °F 29.89 in SW 1.6 mph 3.5 mph 62 % 0.00 in
14:51 91.6 °F 76.2 °F 29.89 in NW 1.3 mph 4.0 mph 61 % 0.00 in
14:56 91.8 °F 76.4 °F 29.88 in WSW 2.2 mph 4.0 mph 61 % 0.00 in
15:01 91.9 °F 76.5 °F 29.88 in WNW 0.5 mph 3.5 mph 61 % 0.00 in
15:06 91.9 °F 76.5 °F 29.88 in SSW 2.6 mph 5.0 mph 61 % 0.00 in
15:11 91.9 °F 75.0 °F 29.88 in SW 5.9 mph 10.4 mph 58 % 0.00 in
15:16 91.9 °F 75.5 °F 29.87 in WNW 3.0 mph 6.9 mph 59 % 0.00 in
15:22 92.0 °F 75.6 °F 29.87 in WSW 3.8 mph 5.8 mph 59 % 0.00 in
15:27 91.9 °F 76.0 °F 29.88 in WSW 2.3 mph 5.0 mph 60 % 0.00 in
15:32 91.7 °F 75.3 °F 29.87 in WSW 0.7 mph 3.5 mph 59 % 0.00 in
15:37 91.5 °F 74.6 °F 29.88 in SSW 5.1 mph 10.4 mph 58 % 0.00 in
15:42 91.4 °F 75.6 °F 29.88 in WSW 1.9 mph 6.9 mph 60 % 0.00 in
15:47 91.3 °F 76.0 °F 29.89 in WNW 2.2 mph 4.6 mph 61 % 0.00 in
15:52 91.4 °F 75.6 °F 29.89 in WNW 3.0 mph 5.8 mph 60 % 0.00 in
15:57 91.4 °F 74.5 °F 29.87 in West 3.1 mph 8.1 mph 58 % 0.00 in
16:02 91.2 °F 75.9 °F 29.87 in SW 3.2 mph 5.0 mph 61 % 0.00 in
16:08 91.2 °F 75.9 °F 29.87 in WSW 3.1 mph 7.0 mph 61 % 0.00 in
16:13 91.2 °F 74.9 °F 29.87 in SW 4.2 mph 8.1 mph 59 % 0.00 in
16:18 91.4 °F 75.1 °F 29.87 in WNW 3.4 mph 5.8 mph 59 % 0.00 in
16:23 91.6 °F 75.2 °F 29.87 in WNW 4.3 mph 6.0 mph 59 % 0.00 in
16:28 91.7 °F 74.3 °F 29.86 in WSW 4.6 mph 10.4 mph 57 % 0.00 in
16:33 92.0 °F 75.1 °F 29.86 in SW 3.4 mph 9.2 mph 58 % 0.00 in
16:38 92.1 °F 74.1 °F 29.86 in West 3.6 mph 9.2 mph 56 % 0.00 in
16:43 92.2 °F 73.7 °F 29.86 in NW 5.0 mph 8.1 mph 55 % 0.00 in
16:48 92.0 °F 74.6 °F 29.86 in WSW 4.3 mph 9.2 mph 57 % 0.00 in
16:53 91.9 °F 74.5 °F 29.86 in WSW 4.1 mph 9.2 mph 57 % 0.00 in
16:58 91.8 °F 73.3 °F 29.86 in WSW 2.7 mph 5.0 mph 55 % 0.00 in
17:03 91.9 °F 73.4 °F 29.86 in SW 6.4 mph 8.1 mph 55 % 0.00 in
17:08 91.8 °F 72.8 °F 29.87 in WSW 3.8 mph 9.2 mph 54 % 0.00 in
17:13 91.5 °F 73.1 °F 29.86 in WSW 4.1 mph 5.8 mph 55 % 0.00 in
17:18 91.3 °F 73.4 °F 29.86 in West 2.0 mph 9.2 mph 56 % 0.00 in
17:23 91.1 °F 73.2 °F 29.87 in WNW 3.8 mph 7.0 mph 56 % 0.00 in
17:28 90.8 °F 73.5 °F 29.87 in West 3.4 mph 8.1 mph 57 % 0.00 in
17:33 90.7 °F 73.4 °F 29.87 in WSW 4.1 mph 6.9 mph 57 % 0.00 in
17:38 90.5 °F 73.2 °F 29.87 in WSW 4.6 mph 10.4 mph 57 % 0.00 in
17:44 90.3 °F 73.5 °F 29.87 in SSW 3.4 mph 6.9 mph 58 % 0.00 in
17:49 90.1 °F 72.8 °F 29.87 in West 2.7 mph 5.8 mph 57 % 0.00 in
17:54 89.9 °F 73.7 °F 29.87 in SW 1.8 mph 4.6 mph 59 % 0.00 in
17:59 89.7 °F 74.0 °F 29.87 in SW 1.0 mph 2.3 mph 60 % 0.00 in
18:04 89.5 °F 73.8 °F 29.88 in WSW 0.3 mph 3.5 mph 60 % 0.00 in
18:09 89.3 °F 73.6 °F 29.87 in WSW 1.5 mph 5.0 mph 60 % 0.00 in
18:14 89.2 °F 74.5 °F 29.88 in West 2.9 mph 4.6 mph 62 % 0.00 in
18:19 89.0 °F 73.8 °F 29.88 in WNW 0.9 mph 2.3 mph 61 % 0.00 in
18:24 88.8 °F 73.6 °F 29.87 in SSW 4.0 mph 5.0 mph 61 % 0.00 in
18:29 88.6 °F 73.4 °F 29.88 in WSW 2.3 mph 4.0 mph 61 % 0.00 in
18:34 88.3 °F 73.6 °F 29.88 in West 4.0 mph 6.9 mph 62 % 0.00 in
18:39 88.0 °F 73.3 °F 29.87 in SW 2.8 mph 5.8 mph 62 % 0.00 in
18:44 87.6 °F 73.0 °F 29.88 in SW 3.6 mph 7.0 mph 62 % 0.00 in
18:49 87.3 °F 73.6 °F 29.88 in WSW 3.8 mph 6.0 mph 64 % 0.00 in
18:54 87.0 °F 72.9 °F 29.88 in SW 1.5 mph 3.5 mph 63 % 0.00 in
18:59 86.9 °F 73.3 °F 29.88 in WSW 1.6 mph 3.5 mph 64 % 0.00 in
19:04 86.7 °F 73.1 °F 29.89 in SW 3.6 mph 15.0 mph 64 % 0.00 in
19:09 86.3 °F 73.1 °F 29.89 in South 5.3 mph 12.7 mph 65 % 0.00 in
19:14 85.8 °F 73.1 °F 29.89 in SW 7.0 mph 9.2 mph 66 % 0.00 in
19:19 85.4 °F 73.2 °F 29.89 in SW 3.9 mph 11.5 mph 67 % 0.00 in
19:25 85.0 °F 73.3 °F 29.89 in West 4.2 mph 10.4 mph 68 % 0.00 in
19:30 84.5 °F 72.8 °F 29.90 in West 3.7 mph 10.4 mph 68 % 0.00 in
19:35 84.1 °F 72.8 °F 29.90 in WSW 4.5 mph 10.4 mph 69 % 0.00 in
19:40 83.8 °F 73.0 °F 29.90 in WSW 2.9 mph 8.0 mph 70 % 0.00 in
19:45 83.5 °F 73.1 °F 29.90 in West 3.0 mph 5.8 mph 71 % 0.00 in
19:50 83.3 °F 72.9 °F 29.90 in WSW 1.9 mph 9.2 mph 71 % 0.00 in
19:55 83.1 °F 73.1 °F 29.90 in West 2.9 mph 5.8 mph 72 % 0.00 in
20:00 82.9 °F 72.9 °F 29.90 in WNW 1.9 mph 4.6 mph 72 % 0.00 in
20:05 82.8 °F 73.3 °F 29.91 in WNW 3.8 mph 5.8 mph 73 % 0.00 in
20:10 82.7 °F 73.6 °F 29.90 in SSW 0.6 mph 3.5 mph 74 % 0.00 in
20:15 82.5 °F 73.4 °F 29.91 in SW 1.9 mph 3.5 mph 74 % 0.00 in
20:20 82.4 °F 73.3 °F 29.91 in SW 0.7 mph 3.5 mph 74 % 0.00 in
20:25 82.3 °F 73.6 °F 29.91 in West 0.5 mph 1.2 mph 75 % 0.00 in
20:30 82.1 °F 73.4 °F 29.91 in West 0.4 mph 2.3 mph 75 % 0.00 in
20:35 82.0 °F 72.9 °F 29.91 in NW 0.2 mph 1.2 mph 74 % 0.00 in
20:40 81.9 °F 73.2 °F 29.91 in Calm   1.2 mph 75 % 0.00 in
20:45 81.8 °F 73.1 °F 29.91 in Calm   1.2 mph 75 % 0.00 in
20:50 81.7 °F 73.4 °F 29.92 in North 3.9 mph 5.8 mph 76 % 0.00 in
20:55 81.4 °F 73.1 °F 29.92 in North 2.2 mph 5.0 mph 76 % 0.00 in
21:00 81.1 °F 72.8 °F 29.92 in NNW 1.1 mph 3.0 mph 76 % 0.00 in
21:05 80.8 °F 72.9 °F 29.92 in West 1.5 mph 5.8 mph 77 % 0.00 in
21:10 80.7 °F 72.8 °F 29.93 in West 0.2 mph 1.2 mph 77 % 0.00 in
21:15 80.5 °F 72.6 °F 29.93 in West 1.3 mph 3.5 mph 77 % 0.00 in
21:20 80.4 °F 72.9 °F 29.93 in West 0.3 mph 2.3 mph 78 % 0.00 in
21:25 80.2 °F 72.7 °F 29.94 in NNW 0.8 mph 2.3 mph 78 % 0.00 in
21:29 80.0 °F 72.5 °F 29.94 in NNW 0.2 mph 1.2 mph 78 % 0.00 in
21:34 79.8 °F 72.3 °F 29.95 in Calm     78 % 0.00 in
21:39 79.7 °F 72.6 °F 29.95 in Calm     79 % 0.00 in
21:44 79.6 °F 72.5 °F 29.95 in Calm   1.2 mph 79 % 0.00 in
21:49 79.4 °F 73.1 °F 29.95 in Calm     81 % 0.01 in
21:54 79.3 °F 73.3 °F 29.95 in Calm     82 % 0.01 in
21:59 79.2 °F 73.2 °F 29.95 in Calm   1.2 mph 82 % 0.01 in
22:04 79.0 °F 73.4 °F 29.95 in Calm     83 % 0.01 in
22:09 78.8 °F 73.2 °F 29.96 in Calm     83 % 0.01 in
22:14 78.6 °F 73.4 °F 29.95 in Calm     84 % 0.01 in
22:19 78.3 °F 73.4 °F 29.94 in Calm     85 % 0.01 in
22:24 78.1 °F 73.2 °F 29.94 in Calm   1.0 mph 85 % 0.01 in
22:29 77.8 °F 72.9 °F 29.94 in Calm     85 % 0.01 in
22:34 77.6 °F 73.1 °F 29.94 in Calm     86 % 0.01 in
22:39 77.3 °F 73.1 °F 29.94 in Calm     87 % 0.01 in
22:44 77.2 °F 73.0 °F 29.94 in Calm     87 % 0.01 in
22:49 77.1 °F 72.9 °F 29.94 in Calm     87 % 0.00 in
22:54 76.9 °F 73.1 °F 29.94 in Calm     88 % 0.00 in
22:59 76.7 °F 72.9 °F 29.94 in Calm     88 % 0.00 in
23:05 76.6 °F 73.1 °F 29.94 in Calm     89 % 0.00 in
23:10 76.4 °F 72.9 °F 29.94 in Calm     89 % 0.00 in
23:15 76.3 °F 73.1 °F 29.94 in Calm     90 % 0.00 in
23:20 76.1 °F 73.0 °F 29.94 in Calm     90 % 0.00 in
23:25 76.0 °F 72.5 °F 29.94 in Calm   1.2 mph 89 % 0.00 in
23:30 75.9 °F 72.4 °F 29.94 in Calm     89 % 0.00 in
23:35 75.8 °F 72.7 °F 29.94 in NW 0.3 mph 1.2 mph 90 % 0.00 in
23:40 75.6 °F 72.5 °F 29.94 in Calm   1.2 mph 90 % 0.00 in
23:45 75.5 °F 72.4 °F 29.94 in Calm     90 % 0.00 in
23:50 75.5 °F 72.4 °F 29.94 in NW 0.2 mph 1.2 mph 90 % 0.00 in
23:55 75.4 °F 72.3 °F 29.94 in WSW 0.1 mph 2.3 mph 90 % 0.00 in
Crab Meadow Weather
Compliments of Weather Underground - 3 mb

Script developed by  Jim McMurry - jmcmurry@mwt.net Adapted for the template by  Wim van der Kuil - Leuven-Template.eu

Weather Terms: Rain/Showers - Rain is a nearly steady and uniform fall of precipitation over an area. Showers are intermittent and/or scattered convective rainfall of varying intensity.